Location: Ostrava
(49.8330°N, 18.2830°E)
Time: 01:10:03
(UTC+02:00)

Envisat - Pass Details

Date: 21 January 2022
Orbit: 764 x 765 km, 98.2° (Epoch: 21 May)

Event Time Altitude Azimuth Distance (km) Brightness Sun altitude
Rises 06:40:54 0° 1° (N) 3,243 6.0 -8.5°
Reaches altitude 10° 06:44:11 10° 339° (NNW) 2,312 5.1 -8.0°
Maximum altitude 06:46:54 15° 306° (NW) 1,997 4.5 -7.6°
Drops below altitude 10° 06:49:37 10° 274° (W) 2,305 4.9 -7.2°
Sets 06:52:54 0° 251° (WSW) 3,226 5.8 -6.7°
